Flag for Guyana Weather past 2 weeks in Georgetown, Guyana

Now
73 °F

Scattered showers. Broken clouds.


Feels Like: 68 °F
Forecast: 77 / 89 °F
Wind: No wind

Location: Georgetown/Cheddi Jagan International Airport

Current Time: Oct 22, 2014 at 6:43:11 AM

Latest Report: Oct 22, 2014 at 6:00 AM


Visibility: 4 mi

Pressure: 29.86 "Hg

Humidity: 100%

Dew point: 73 °F

Location of GeorgetownLocation

Historic Weather in Georgetown — Graph

°F

Georgetown temperature yesterday

Maximum temperature yesterday: 91 °F (at 1:00 PM)
Minimum temperature yesterday: 73 °F (at 3:00 AM)
Average temperature yesterday: 80 °F

Past Weeks' High & Low Weather Summary

 TemperatureHumidityPressure
High93 °F (Oct 16, 2:00 PM)100% (Oct 7, 6:00 AM)30.01 "Hg (Oct 7, 6:00 AM)
Low70 °F (Oct 12, 6:00 AM)49% (Oct 16, 3:00 PM)29.74 "Hg (Oct 8, 5:00 PM)
Average80 °F85%29.87 "Hg
* Reported Oct 7 6:00 AM — Oct 22 6:00 AM, Georgetown, Weather by CustomWeather, © 2014

Note: Actual official high and low records may vary slightly from our data, if they occured in-between our weather recording intervals... More about our weather records

Advertising

Georgetown weather history for previous 24 hours

 ConditionsComfort  
Time TempWeatherWind HumidityBarometerVisibility
6:00 AM
Oct 22
73 °FScattered showers. Broken clouds.No wind100%29.86 "Hg4 mi
4:00 AM73 °FPassing clouds.No wind100%29.83 "HgN/A
2:00 AM75 °FPassing clouds.No wind94%29.83 "HgN/A
12:00 AM75 °FPartly cloudy.No wind100%29.86 "HgN/A
11:00 PM
Oct 21
75 °FPassing clouds.No wind100%29.86 "HgN/A
10:00 PM75 °FPassing clouds.No wind100%29.89 "HgN/A
9:00 PM75 °FPassing clouds.2 mph100%29.86 "HgN/A
8:00 PM77 °FPassing clouds.2 mph94%29.86 "HgN/A
7:00 PM79 °FPassing clouds.2 mph89%29.83 "HgN/A
6:00 PM79 °FPartly cloudy.5 mph89%29.83 "HgN/A
5:00 PM81 °FBroken clouds.5 mph84%29.83 "HgN/A
4:00 PM81 °FBroken clouds.7 mph84%29.80 "HgN/A
3:00 PM82 °FThunderstorms. Partly sunny.12 mph79%29.80 "HgN/A
2:00 PM91 °FPartly sunny.12 mph56%29.80 "HgN/A
1:00 PM91 °FPartly sunny.9 mph52%29.80 "HgN/A
12:00 PM90 °FScattered clouds.7 mph59%29.86 "HgN/A
11:00 AM88 °FScattered clouds.5 mph59%29.89 "HgN/A
10:00 AM88 °FScattered clouds.5 mph66%29.89 "HgN/A
9:00 AM82 °FScattered clouds.5 mph84%29.89 "HgN/A
8:00 AM79 °FScattered clouds.No wind94%29.89 "HgN/A
7:00 AM75 °FFog.No wind100%29.89 "Hg1 mi
6:00 AM73 °FScattered clouds.5 mph100%29.86 "Hg6 mi
Weather by CustomWeather, © 2014

See weather overviewHow to use our weather pages